Plymouth, NH

6:46 AM EDT on June 25, 2017 (GMT -0400)
Plymouth

Weather History for K1P1 - May, 2013

Change the Weather History Date:

Monday, May 20, 2013

  Actual Average (KLCI) Record (KLCI)
Temperature  
Mean Temperature 61 °F -  
Max Temperature 70 °F 68 °F 90 °F (1986)
Min Temperature 52 °F 45 °F 28 °F (2002)
Degree Days  
Heating Degree Days 4    
Growing Degree Days 11 (Base 50)    
Moisture  
Dew Point 56 °F    
Average Humidity 88    
Maximum Humidity 97    
Minimum Humidity 67    
Precipitation  
Precipitation 0.28 in - - ()
Sea Level Pressure  
Sea Level Pressure 30.02 in    
Wind  
Wind Speed 3 mph (NW)    
Max Wind Speed 9 mph    
Max Gust Speed -    
Visibility 7 miles    
Events Fog , Rain    
Averages and records for this station are not official NWS values.
T = Trace of Precipitation, MM = Missing Value Source: NWS Daily Summary

Daily Weather History Graph

Daily Weather History Graph

Search for Another Location

Airport or City:

Trip Planner

Search our weather history database for the weather conditions in past years. The results will help you decide how hot, cold, wet, or windy it might be!

Date:

Astronomy

May. 20, 2013 Rise Set
Actual Time 5:16 AM EDT 8:11 PM EDT
Civil Twilight 4:42 AM EDT 8:45 PM EDT
Nautical Twilight 3:59 AM EDT 9:28 PM EDT
Astronomical Twilight 3:09 AM EDT 10:19 PM EDT
Moon 3:06 PM EDT (5/20) 2:19 AM EDT (5/20)
Length of Visible Light 16h 02m
Length of Day
14h 54m
Waxing Gibbous, 75% of the Moon is Illuminated
May 20
Waxing Gibbous
May 25
Full
May 31
Last Quarter
Jun 8
New
Jun 16
First Quarter

Hourly Weather History & Observations

Time (EDT) Temp. Dew Point Humidity Pressure Visibility Wind Dir Wind Speed Gust Speed Precip Events Conditions
12:15 AM 53.2 °F 52.0 °F 95% 30.19 in 7.0 mi NE 4.6 mph - 0.02 in Rain Rain
12:55 AM 53.1 °F 51.8 °F 95% 30.17 in 5.0 mi ENE 3.5 mph - 0.15 in Rain Rain
1:15 AM 53.1 °F 52.0 °F 96% 30.16 in 4.0 mi Calm Calm - 0.03 in Rain Rain
1:35 AM 53.1 °F 52.0 °F 96% 30.14 in 4.0 mi East 3.5 mph - 0.09 in Rain Rain
1:55 AM 53.1 °F 52.2 °F 97% 30.14 in 5.0 mi ENE 3.5 mph - 0.11 in Rain Rain
2:15 AM 53.1 °F 52.2 °F 97% 30.12 in 3.0 mi East 4.6 mph - 0.01 in   Light Drizzle
2:35 AM 52.9 °F 52.0 °F 97% 30.12 in 2.5 mi ENE 3.5 mph - 0.01 in Rain Light Rain
2:55 AM 52.9 °F 52.0 °F 97% 30.11 in 3.0 mi Calm Calm - 0.01 in   Overcast
3:15 AM 53.1 °F 52.2 °F 97% 30.10 in 3.0 mi ENE 4.6 mph - N/A   Overcast
3:35 AM 53.1 °F 52.2 °F 97% 30.09 in 3.0 mi ENE 3.5 mph - 0.01 in   Overcast
3:55 AM 53.1 °F 52.2 °F 97% 30.08 in 4.0 mi Calm Calm - 0.01 in   Overcast
4:15 AM 53.1 °F 52.2 °F 97% 30.07 in 4.0 mi Calm Calm - N/A   Overcast
4:35 AM 52.9 °F 52.0 °F 97% 30.06 in 5.0 mi Calm Calm - N/A   Overcast
4:55 AM 53.1 °F 52.2 °F 97% 30.05 in 7.0 mi Calm Calm - N/A   Overcast
5:15 AM 53.2 °F 52.3 °F 97% 30.05 in 5.0 mi Calm Calm - N/A   Overcast
5:35 AM 53.2 °F 52.3 °F 97% 30.04 in 7.0 mi Calm Calm - N/A   Overcast
5:55 AM 53.4 °F 52.5 °F 97% 30.05 in 3.0 mi Calm Calm - N/A   Overcast
6:15 AM 53.6 °F 52.7 °F 97% 30.05 in 4.0 mi Calm Calm - N/A   Overcast
6:35 AM 53.6 °F 52.7 °F 97% 30.04 in 4.0 mi Calm Calm - N/A   Overcast
6:55 AM 53.8 °F 52.9 °F 97% 30.04 in 7.0 mi Calm Calm - N/A   Overcast
7:15 AM 54.0 °F 53.1 °F 97% 30.04 in 10.0 mi Calm Calm - N/A   Overcast
7:35 AM 54.5 °F 53.6 °F 97% 30.04 in 10.0 mi Calm Calm - N/A   Overcast
7:55 AM 54.5 °F 53.6 °F 97% 30.03 in 10.0 mi Calm Calm - N/A   Overcast
8:15 AM 55.2 °F 53.8 °F 95% 30.03 in 10.0 mi Calm Calm - N/A   Overcast
8:35 AM 55.6 °F 53.6 °F 93% 30.03 in 10.0 mi Calm Calm - N/A   Overcast
8:55 AM 55.9 °F 54.0 °F 93% 30.04 in 10.0 mi Calm Calm - N/A   Overcast
9:15 AM 56.5 °F 54.5 °F 93% 30.03 in 10.0 mi Calm Calm - N/A   Overcast
9:35 AM 57.4 °F 54.9 °F 91% 30.03 in 10.0 mi Calm Calm - N/A   Mostly Cloudy
9:55 AM 57.7 °F 55.4 °F 92% 30.03 in 10.0 mi Calm Calm - N/A Rain Light Rain
10:15 AM 59.2 °F 57.0 °F 93% 30.02 in 10.0 mi Calm Calm - N/A   Mostly Cloudy
10:35 AM 61.3 °F 56.7 °F 85% 30.03 in 10.0 mi NW 6.9 mph - N/A   Overcast
10:55 AM 61.9 °F 56.5 °F 82% 30.02 in 10.0 mi NW 4.6 mph - N/A   Overcast
11:15 AM 63.7 °F 58.1 °F 82% 30.01 in 10.0 mi WNW 5.8 mph - N/A   Overcast
11:35 AM 65.3 °F 58.5 °F 78% 29.99 in 10.0 mi WNW 8.1 mph - N/A   Mostly Cloudy
11:55 AM 65.3 °F 57.7 °F 76% 29.99 in 10.0 mi NW 5.8 mph - N/A   Mostly Cloudy
12:15 PM 65.8 °F 57.9 °F 76% 29.99 in 10.0 mi West 4.6 mph - N/A   Overcast
12:35 PM 65.8 °F 58.1 °F 76% 29.98 in 10.0 mi West 6.9 mph - N/A   Overcast
12:55 PM 66.4 °F 57.9 °F 74% 29.98 in 10.0 mi West 6.9 mph - N/A   Overcast
1:15 PM 66.9 °F 59.4 °F 77% 29.97 in 10.0 mi WNW 6.9 mph - N/A   Overcast
1:35 PM 66.2 °F 59.0 °F 78% 29.98 in 10.0 mi WNW 8.1 mph - N/A   Overcast
2:15 PM 65.8 °F 58.8 °F 78% 29.99 in 10.0 mi WNW 4.6 mph - N/A   Overcast
2:35 PM 66.2 °F 59.4 °F 79% 29.98 in 10.0 mi WNW 4.6 mph - N/A   Overcast
2:55 PM 67.1 °F 59.7 °F 77% 29.98 in 10.0 mi West 4.6 mph - N/A   Overcast
3:15 PM 67.1 °F 59.5 °F 77% 29.97 in 10.0 mi West 6.9 mph - N/A   Mostly Cloudy
3:55 PM 68.0 °F 59.4 °F 74% 29.96 in 10.0 mi West 9.2 mph - N/A   Clear
4:15 PM 68.5 °F 59.9 °F 74% 29.96 in 10.0 mi West 5.8 mph - N/A   Mostly Cloudy
4:35 PM 69.1 °F 60.3 °F 73% 29.97 in 10.0 mi West 4.6 mph - N/A   Overcast
5:15 PM 69.6 °F 59.5 °F 70% 29.97 in 10.0 mi West 6.9 mph - N/A   Scattered Clouds
5:35 PM 69.8 °F 59.5 °F 70% 29.97 in 10.0 mi West 8.1 mph - N/A   Mostly Cloudy
6:15 PM 70.3 °F 59.0 °F 67% 29.97 in 10.0 mi WNW 6.9 mph - N/A   Scattered Clouds
6:55 PM 68.9 °F 58.8 °F 70% 29.97 in 10.0 mi West 3.5 mph - N/A   Scattered Clouds
7:15 PM 68.4 °F 58.8 °F 71% 29.98 in 10.0 mi West 5.8 mph - N/A   Mostly Cloudy
7:35 PM 68.0 °F 58.6 °F 72% 29.98 in 10.0 mi Calm Calm - N/A   Mostly Cloudy
7:55 PM 66.9 °F 58.6 °F 75% 29.98 in 10.0 mi Calm Calm - N/A   Scattered Clouds
8:15 PM 63.5 °F 59.0 °F 85% 29.97 in 10.0 mi Calm Calm - N/A   Scattered Clouds
8:35 PM 61.7 °F 58.6 °F 90% 29.97 in 10.0 mi Calm Calm - N/A   Clear
8:55 PM 60.8 °F 58.8 °F 93% 29.99 in 7.0 mi Calm Calm - N/A   Clear
9:15 PM 59.9 °F 58.3 °F 94% 29.98 in 2.5 mi Calm Calm - N/A   Clear
9:35 PM 59.0 °F 57.7 °F 96% 29.99 in 4.0 mi Calm Calm - N/A   Clear
9:55 PM 58.1 °F 57.0 °F 96% 29.99 in 3.0 mi Calm Calm - N/A   Clear
10:15 PM 57.2 °F 56.1 °F 96% 29.99 in 0.5 mi Calm Calm - N/A Fog Fog
10:35 PM 56.1 °F 55.0 °F 96% 29.99 in 0.5 mi Calm Calm - N/A Fog Fog
10:55 PM 56.1 °F 55.2 °F 97% 30.00 in 0.5 mi Calm Calm - N/A Fog Fog
11:15 PM 55.2 °F 54.3 °F 97% 30.00 in 0.2 mi Calm Calm - N/A Fog Fog
11:35 PM 54.9 °F 54.0 °F 97% 29.99 in 0.5 mi Calm Calm - N/A Fog Fog
11:55 PM 53.8 °F 53.1 °F 97% 29.99 in 0.5 mi Calm Calm - N/A Fog Fog